This demonstration page uses our WeatherBlox Daily Observations layout. Learn more.

38.88101, -77.10428

Hourly Observations for February 6, 2018

Temp ( °F °C ) Dew Point ( °F °C ) Humidity (%) Winds ( mph kmh ) Pressure ( in mb ) Visibility ( mi km ) Precip ( " mm )
12:52 am 00:52 Cloudy 29 -1.7 17 -8.3 61 61 SSE 3 6 30.29 1026 10 16.0934 0 0
1:52 am 01:52 Cloudy 29 -1.7 20 -6.7 69 69 SSW 5 7 30.29 1026 10 16.0934 0 0
2:52 am 02:52 Cloudy 29 -1.7 20 -6.7 69 69 SSE 3 6 30.3 1026 10 16.0934 0 0
3:52 am 03:52 Cloudy 29 -1.7 21 -6.1 72 72 SE 5 7 30.29 1026 10 16.0934 0 0
4:52 am 04:52 Mostly Cloudy 29 -1.7 21 -6.1 72 72 SE 5 7 30.29 1026 10 16.0934 0 0
5:52 am 05:52 Mostly Cloudy 30 -1.1 23 -5 75 75 S 7 11 30.29 1026 10 16.0934 0 0
6:52 am 06:52 Mostly Cloudy 30 -1.1 24 -4.4 79 79 S 8 13 30.3 1026 10 16.0934 0 0
7:44 am 07:44 Cloudy 31 -0.6 26 -3.3 82 82 S 8 13 30.33 1027 10 16.0934 0 0
7:52 am 07:52 Cloudy 32 0 26 -3.3 79 79 S 9 15 30.32 1027 10 16.0934 0 0
8:52 am 08:52 Cloudy 33 0.6 25 -3.9 72 72 S 6 9 30.34 1027 10 16.0934 0 0
9:52 am 09:52 Cloudy 34 1.1 25 -3.9 70 70 SW 5 7 30.35 1028 10 16.0934 0 0
10:52 am 10:52 Cloudy 37 2.8 27 -2.8 67 67 VRB 5 7 30.36 1028 10 16.0934 0 0
11:52 am 11:52 Cloudy 38 3.3 27 -2.8 65 65 Calm 30.36 1028 10 16.0934 0 0
12:52 pm 12:52 Cloudy 39 3.9 26 -3.3 60 60 Calm 30.36 1028 10 16.0934 0 0
1:52 pm 13:52 Cloudy 42 5.6 24 -4.4 49 49 N 12 19 30.36 1028 10 16.0934 0 0
2:52 pm 14:52 Cloudy 42 5.6 23 -5 47 47 WNW 9 15 30.37 1029 10 16.0934 0 0
3:52 pm 15:52 Cloudy 41 5 24 -4.4 51 51 NNW 10 17 30.4 1030 10 16.0934 0 0
4:52 pm 16:52 Cloudy 40 4.4 23 -5 51 51 NNW 7 11 30.43 1030 10 16.0934 0 0
5:52 pm 17:52 Cloudy 38 3.3 25 -3.9 60 60 N 7 11 30.45 1031 10 16.0934 0 0
6:52 pm 18:52 Cloudy 38 3.3 24 -4.4 57 57 NNE 10 17 30.46 1032 10 16.0934 0 0
7:52 pm 19:52 Mostly Cloudy 36 2.2 25 -3.9 64 64 ENE 6 9 30.48 1032 10 16.0934 0 0
8:52 pm 20:52 Mostly Cloudy 35 1.7 26 -3.3 70 70 ENE 7 11 30.49 1033 10 16.0934 0 0
9:52 pm 21:52 Mostly Cloudy 35 1.7 25 -3.9 67 67 NE 3 6 30.48 1032 10 16.0934 0 0
10:52 pm 22:52 Mostly Cloudy 33 0.6 25 -3.9 72 72 Calm 30.49 1033 10 16.0934 0 0
11:52 pm 23:52 Mostly Cloudy 33 0.6 26 -3.3 75 75 ENE 6 9 30.48 1032 10 16.0934 0 0

Powered by AerisWeather